Location: Le Gr�zie
(43.6000°N, 13.5000°E)
Time: 13:02:10
(UTC+00:00)

STARLINK-1225 - Visible Passes

Search period start: 06 August 2020 00:00
Search period end: 16 August 2020 00:00
Orbit: 549 x 551 km, 53.0° (Epoch: 05 August)

Date Brightness Start Highest point End Pass type
(mag) Time Alt. Az. Time Alt. Az. Time Alt. Az.
06 Aug 5.5 00:47:05 10° NW 00:48:40 22° NW 00:48:40 22° NW visible
06 Aug 4.7 19:40:48 10° WSW 19:44:48 47° NNW 19:48:50 10° NE visible
06 Aug 6.0 21:21:48 10° WNW 21:25:08 23° N 21:28:28 10° NE visible
06 Aug 5.6 23:02:07 10° NW 23:05:41 27° NNE 23:05:55 27° NNE visible
07 Aug 5.1 19:35:26 10° W 19:39:19 39° NNW 19:43:14 10° NE visible
07 Aug 6.0 21:16:28 10° NW 21:19:44 22° N 21:23:01 10° NE visible
07 Aug 5.6 22:56:33 10° NW 22:59:29 28° N 22:59:29 28° N visible
08 Aug 5.4 19:30:01 10° W 19:33:48 33° NNW 19:37:36 10° NE visible
08 Aug 6.0 21:11:01 10° NW 21:14:17 22° N 21:17:33 10° NE visible
08 Aug 5.6 22:50:54 10° NW 22:53:17 27° NNW 22:53:17 27° NNW visible
09 Aug 5.6 19:24:35 10° W 19:28:15 29° NNW 19:31:54 10° NE visible
09 Aug 5.9 21:05:29 10° NW 21:08:46 22° N 21:11:34 12° NE visible
09 Aug 5.7 22:45:11 10° NW 22:47:10 25° NNW 22:47:10 25° NNW visible
10 Aug 5.7 19:19:06 10° WNW 19:22:38 26° NNW 19:26:10 10° NE visible
10 Aug 5.8 20:59:50 10° NW 21:03:11 23° N 21:05:30 15° NE visible
10 Aug 5.8 22:39:25 10° NW 22:41:05 22° NW 22:41:05 22° NW visible
11 Aug 5.8 19:13:33 10° WNW 19:16:59 24° N 19:20:24 10° NE visible
11 Aug 5.6 20:54:05 10° NW 20:57:32 24° N 20:59:25 18° NE visible
11 Aug 5.9 22:33:34 10° NW 22:35:01 21° NW 22:35:01 21° NW visible
12 Aug 5.8 19:07:55 10° WNW 19:11:16 23° N 19:14:38 10° NE visible
12 Aug 5.4 20:48:16 10° NW 20:51:49 26° NNE 20:53:20 21° NE visible
12 Aug 6.0 22:27:41 10° NW 22:28:55 19° NW 22:28:55 19° NW visible
13 Aug 5.8 19:02:13 10° WNW 19:05:31 22° N 19:08:48 10° NE visible
13 Aug 5.2 20:42:21 10° NW 20:46:01 29° NNE 20:47:13 25° NE visible
13 Aug 6.1 22:21:46 10° WNW 22:22:49 17° WNW 22:22:49 17° WNW visible
14 Aug 5.8 18:56:26 10° NW 18:59:42 22° N 19:02:58 10° NE visible
14 Aug 4.9 20:36:21 10° NW 20:40:09 33° NNE 20:41:06 30° NE visible
14 Aug 6.2 22:15:49 10° WNW 22:16:41 16° WNW 22:16:41 16° WNW visible
15 Aug 5.7 18:50:32 10° NW 18:53:49 22° N 18:57:06 10° NE visible
15 Aug 4.6 20:30:17 10° NW 20:34:11 39° NNE 20:34:56 35° NE visible
15 Aug 6.3 22:09:50 10° WNW 22:10:32 14° WNW 22:10:32 14° WNW visible
